ファン・ネス彗星

327P/Van Ness (2022)

English version
Home page
Updated on March 5, 2023

---------------------------------------------------------------------

・ プロフィール

・ 写真集

・ 軌道要素

Epoch 2022 Aug. 9.0 TT = JDT 2459800.5
T 2022 Sept. 2.40023 TT                                 Rudenko
q   1.5560639            (2000.0)            P               Q
n   0.14651532     Peri.  185.03598     +0.99807339     -0.00311668
a   3.5635322      Node   173.98483     -0.01053521     +0.97572105
e   0.5633366      Incl.   36.25116     -0.06114343     -0.21899481
P   6.73
>From 744 observations 2002 Aug. 17-2022 Nov. 3, mean residual 0".5.

・ 星図

・ 光度変化

        m1 = 12.5 + 5 logΔ + 20.0 log r

---------------------------------------------------------------------

軌道要素はM.P.E.C. 2022-V95に掲載されたものです。
星図はステラナビゲータ Ver.10 (アストロアーツ) で作成したものです。
光度グラフはComet for Windowsで作成したものです。

---------------------------------------------------------------------

Copyright(C) Seiichi Yoshida (comet@aerith.net). All rights reserved.